Year,Month,Day,Hour,Minute,Value (Times are PST for temperature in C)
2016,04,20,00,00,16.00
2016,04,20,00,01,16.10
2016,04,20,00,02,16.10
2016,04,20,00,03,16.20
2016,04,20,00,04,16.30
2016,04,20,00,05,16.30
2016,04,20,00,06,16.40
2016,04,20,00,07,16.40
2016,04,20,00,08,16.40
2016,04,20,00,09,16.50
2016,04,20,00,10,16.50
2016,04,20,00,11,16.50
2016,04,20,00,12,16.60
2016,04,20,00,13,16.60
2016,04,20,00,14,16.60
2016,04,20,00,15,16.50
2016,04,20,00,16,16.50
2016,04,20,00,17,16.50
2016,04,20,00,18,16.40
2016,04,20,00,19,16.40
2016,04,20,00,20,16.40
2016,04,20,00,21,16.30
2016,04,20,00,22,16.30
2016,04,20,00,23,16.20
2016,04,20,00,24,16.20
2016,04,20,00,25,16.10
2016,04,20,00,26,16.10
2016,04,20,00,27,16.00
2016,04,20,00,28,15.90
2016,04,20,00,29,15.90
2016,04,20,00,30,15.80
2016,04,20,00,31,15.80
2016,04,20,00,32,15.80
2016,04,20,00,33,15.70
2016,04,20,00,34,15.70
2016,04,20,00,35,15.60
2016,04,20,00,36,15.60
2016,04,20,00,37,15.60
2016,04,20,00,38,15.50
2016,04,20,00,39,15.50
2016,04,20,00,40,15.40
2016,04,20,00,41,15.40
2016,04,20,00,42,15.40
2016,04,20,00,43,15.40
2016,04,20,00,44,15.30
2016,04,20,00,45,15.30
2016,04,20,00,46,15.30
2016,04,20,00,47,15.30
2016,04,20,00,48,15.20
2016,04,20,00,49,15.20
2016,04,20,00,50,15.20
2016,04,20,00,51,15.20
2016,04,20,00,52,15.10
2016,04,20,00,53,15.10
2016,04,20,00,54,15.10
2016,04,20,00,55,15.10
2016,04,20,00,56,15.10
2016,04,20,00,57,15.00
2016,04,20,00,58,15.00
2016,04,20,00,59,15.00
2016,04,20,01,00,14.90
2016,04,20,01,01,14.90
2016,04,20,01,02,14.90
2016,04,20,01,03,14.90
2016,04,20,01,04,14.80
2016,04,20,01,05,14.80
2016,04,20,01,06,14.80
2016,04,20,01,07,14.80
2016,04,20,01,08,14.80
2016,04,20,01,09,14.70
2016,04,20,01,10,14.70
2016,04,20,01,11,14.70
2016,04,20,01,12,14.70
2016,04,20,01,13,14.70
2016,04,20,01,14,14.70
2016,04,20,01,15,14.70
2016,04,20,01,16,14.60
2016,04,20,01,17,14.60
2016,04,20,01,18,14.60
2016,04,20,01,19,14.60
2016,04,20,01,20,14.60
2016,04,20,01,21,14.70
2016,04,20,01,22,14.70
2016,04,20,01,23,14.70
2016,04,20,01,24,14.70
2016,04,20,01,25,14.70
2016,04,20,01,26,14.60
2016,04,20,01,27,14.60
2016,04,20,01,28,14.60
2016,04,20,01,29,14.60
2016,04,20,01,30,14.50
2016,04,20,01,31,14.50
2016,04,20,01,32,14.50
2016,04,20,01,33,14.40
2016,04,20,01,34,14.40
2016,04,20,01,35,14.40
2016,04,20,01,36,14.40
2016,04,20,01,37,14.40
2016,04,20,01,38,14.40
2016,04,20,01,39,14.30
2016,04,20,01,40,14.30
2016,04,20,01,41,14.30
2016,04,20,01,42,14.20
2016,04,20,01,43,14.20
2016,04,20,01,44,14.10
2016,04,20,01,45,14.10
2016,04,20,01,46,14.10
2016,04,20,01,47,14.10
2016,04,20,01,48,14.00
2016,04,20,01,49,14.00
2016,04,20,01,50,14.00
2016,04,20,01,51,13.90
2016,04,20,01,52,13.90
2016,04,20,01,53,13.90
2016,04,20,01,54,13.90
2016,04,20,01,55,13.80
2016,04,20,01,56,13.80
2016,04,20,01,57,13.80
2016,04,20,01,58,13.80
2016,04,20,01,59,13.80
2016,04,20,02,00,13.70
2016,04,20,02,01,13.70
2016,04,20,02,02,13.70
2016,04,20,02,03,13.70
2016,04,20,02,04,13.70
2016,04,20,02,05,13.60
2016,04,20,02,06,13.70
2016,04,20,02,07,13.60
2016,04,20,02,08,13.70
2016,04,20,02,09,13.70
2016,04,20,02,10,13.70
2016,04,20,02,11,13.70
2016,04,20,02,12,13.70
2016,04,20,02,13,13.70
2016,04,20,02,14,13.80
2016,04,20,02,15,13.80
2016,04,20,02,16,13.80
2016,04,20,02,17,13.70
2016,04,20,02,18,13.70
2016,04,20,02,19,13.70
2016,04,20,02,20,13.60
2016,04,20,02,21,13.60
2016,04,20,02,22,13.50
2016,04,20,02,23,13.40
2016,04,20,02,24,13.40
2016,04,20,02,25,13.30
2016,04,20,02,26,13.30
2016,04,20,02,27,13.30
2016,04,20,02,28,13.30
2016,04,20,02,29,13.30
2016,04,20,02,30,13.30
2016,04,20,02,31,13.30
2016,04,20,02,32,13.30
2016,04,20,02,33,13.20
2016,04,20,02,34,13.20
2016,04,20,02,35,13.20
2016,04,20,02,36,13.20
2016,04,20,02,37,13.10
2016,04,20,02,38,13.10
2016,04,20,02,39,13.10
2016,04,20,02,40,13.00
2016,04,20,02,41,13.00
2016,04,20,02,42,12.90
2016,04,20,02,43,12.90
2016,04,20,02,44,12.90
2016,04,20,02,45,12.90
2016,04,20,02,46,12.90
2016,04,20,02,47,12.90
2016,04,20,02,48,12.90
2016,04,20,02,49,12.90
2016,04,20,02,50,12.90
2016,04,20,02,51,13.00
2016,04,20,02,52,13.00
2016,04,20,02,53,13.00
2016,04,20,02,54,13.00
2016,04,20,02,55,13.00
2016,04,20,02,56,12.90
2016,04,20,02,57,12.90
2016,04,20,02,58,12.90
2016,04,20,02,59,12.90
2016,04,20,03,00,12.90
2016,04,20,03,01,12.90
2016,04,20,03,02,13.00
2016,04,20,03,03,13.00
2016,04,20,03,04,13.00
2016,04,20,03,05,13.00
2016,04,20,03,06,13.00
2016,04,20,03,07,13.00
2016,04,20,03,08,13.00
2016,04,20,03,09,13.00
2016,04,20,03,10,12.90
2016,04,20,03,11,12.90
2016,04,20,03,12,12.90
2016,04,20,03,13,12.90
2016,04,20,03,14,12.80
2016,04,20,03,15,12.80
2016,04,20,03,16,12.80
2016,04,20,03,17,12.80
2016,04,20,03,18,12.80
2016,04,20,03,19,12.70
2016,04,20,03,20,12.70
2016,04,20,03,21,12.70
2016,04,20,03,22,12.70
2016,04,20,03,23,12.70
2016,04,20,03,24,12.60
2016,04,20,03,25,12.60
2016,04,20,03,26,12.60
2016,04,20,03,27,12.60
2016,04,20,03,28,12.50
2016,04,20,03,29,12.50
2016,04,20,03,30,12.40
2016,04,20,03,31,12.40
2016,04,20,03,32,12.40
2016,04,20,03,33,12.40
2016,04,20,03,34,12.40
2016,04,20,03,35,12.30
2016,04,20,03,36,12.40
2016,04,20,03,37,12.40
2016,04,20,03,38,12.50
2016,04,20,03,39,12.50
2016,04,20,03,40,12.60
2016,04,20,03,41,12.50
2016,04,20,03,42,12.50
2016,04,20,03,43,12.50
2016,04,20,03,44,12.40
2016,04,20,03,45,12.40
2016,04,20,03,46,12.40
2016,04,20,03,47,12.30
2016,04,20,03,48,12.30
2016,04,20,03,49,12.30
2016,04,20,03,50,12.30
2016,04,20,03,51,12.30
2016,04,20,03,52,12.20
2016,04,20,03,53,12.20
2016,04,20,03,54,12.20
2016,04,20,03,55,12.20
2016,04,20,03,56,12.10
2016,04,20,03,57,12.10
2016,04,20,03,58,12.10
2016,04,20,03,59,12.10
2016,04,20,04,00,12.10
2016,04,20,04,01,12.10
2016,04,20,04,02,12.00
2016,04,20,04,03,12.00
2016,04,20,04,04,12.00
2016,04,20,04,05,12.00
2016,04,20,04,06,11.90
2016,04,20,04,07,11.90
2016,04,20,04,08,11.90
2016,04,20,04,09,11.90
2016,04,20,04,10,11.80
2016,04,20,04,11,11.80
2016,04,20,04,12,11.80
2016,04,20,04,13,11.80
2016,04,20,04,14,11.80
2016,04,20,04,15,11.80
2016,04,20,04,16,11.80
2016,04,20,04,17,11.80
2016,04,20,04,18,11.80
2016,04,20,04,19,11.80
2016,04,20,04,20,11.80
2016,04,20,04,21,11.80
2016,04,20,04,22,11.70
2016,04,20,04,23,11.70
2016,04,20,04,24,11.80
2016,04,20,04,25,11.80
2016,04,20,04,26,11.90
2016,04,20,04,27,12.00
2016,04,20,04,28,12.00
2016,04,20,04,29,12.10
2016,04,20,04,30,12.20
2016,04,20,04,31,12.20
2016,04,20,04,32,12.20
2016,04,20,04,33,12.20
2016,04,20,04,34,12.20
2016,04,20,04,35,12.20
2016,04,20,04,36,12.20
2016,04,20,04,37,12.20
2016,04,20,04,38,12.20
2016,04,20,04,39,12.20
2016,04,20,04,40,12.20
2016,04,20,04,41,12.20
2016,04,20,04,42,12.20
2016,04,20,04,43,12.10
2016,04,20,04,44,12.10
2016,04,20,04,45,12.10
2016,04,20,04,46,12.10
2016,04,20,04,47,12.00
2016,04,20,04,48,12.00
2016,04,20,04,49,12.00
2016,04,20,04,50,12.00
2016,04,20,04,51,11.90
2016,04,20,04,52,11.90
2016,04,20,04,53,11.90
2016,04,20,04,54,11.90
2016,04,20,04,55,11.90
2016,04,20,04,56,11.90
2016,04,20,04,57,11.90
2016,04,20,04,58,11.90
2016,04,20,04,59,11.90
2016,04,20,05,00,11.90
2016,04,20,05,01,11.90
2016,04,20,05,02,11.80
2016,04,20,05,03,11.80
2016,04,20,05,04,11.80
2016,04,20,05,05,11.80
2016,04,20,05,06,11.80
2016,04,20,05,07,11.80
2016,04,20,05,08,11.80
2016,04,20,05,09,11.80
2016,04,20,05,10,11.80
2016,04,20,05,11,11.80
2016,04,20,05,12,11.80
2016,04,20,05,13,11.80
2016,04,20,05,14,11.80
2016,04,20,05,15,11.80
2016,04,20,05,16,11.80
2016,04,20,05,17,11.80
2016,04,20,05,18,11.80
2016,04,20,05,19,11.80
2016,04,20,05,20,11.80
2016,04,20,05,21,11.80
2016,04,20,05,22,11.80
2016,04,20,05,23,11.80
2016,04,20,05,24,11.90
2016,04,20,05,25,11.90
2016,04,20,05,26,11.90
2016,04,20,05,27,11.90
2016,04,20,05,28,11.90
2016,04,20,05,29,11.90
2016,04,20,05,30,11.80
2016,04,20,05,31,11.80
2016,04,20,05,32,11.80
2016,04,20,05,33,11.70
2016,04,20,05,34,11.70
2016,04,20,05,35,11.70
2016,04,20,05,36,11.60
2016,04,20,05,37,11.60
2016,04,20,05,38,11.50
2016,04,20,05,39,11.50
2016,04,20,05,40,11.50
2016,04,20,05,41,11.40
2016,04,20,05,42,11.40
2016,04,20,05,43,11.40
2016,04,20,05,44,11.40
2016,04,20,05,45,11.40
2016,04,20,05,46,11.40
2016,04,20,05,47,11.40
2016,04,20,05,48,11.40
2016,04,20,05,49,11.40
2016,04,20,05,50,11.40
2016,04,20,05,51,11.40
2016,04,20,05,52,11.50
2016,04,20,05,53,11.50
2016,04,20,05,54,11.50
2016,04,20,05,55,11.60
2016,04,20,05,56,11.60
2016,04,20,05,57,11.70
2016,04,20,05,58,11.70
2016,04,20,05,59,11.80
2016,04,20,06,00,11.80
2016,04,20,06,01,11.80
2016,04,20,06,02,11.80
2016,04,20,06,03,11.90
2016,04,20,06,04,11.90
2016,04,20,06,05,11.90
2016,04,20,06,06,11.90
2016,04,20,06,07,11.90
2016,04,20,06,08,11.90
2016,04,20,06,09,11.90
2016,04,20,06,10,11.90
2016,04,20,06,11,11.90
2016,04,20,06,12,11.90
2016,04,20,06,13,11.90
2016,04,20,06,14,11.90
2016,04,20,06,15,11.90
2016,04,20,06,16,11.90
2016,04,20,06,17,11.90
2016,04,20,06,18,11.90
2016,04,20,06,19,11.80
2016,04,20,06,20,11.80
2016,04,20,06,21,11.90
2016,04,20,06,22,11.90
2016,04,20,06,23,11.90
2016,04,20,06,24,11.90
2016,04,20,06,25,11.90
2016,04,20,06,26,11.90
2016,04,20,06,27,11.90
2016,04,20,06,28,12.00
2016,04,20,06,29,12.00
2016,04,20,06,30,11.90
2016,04,20,06,31,11.90
2016,04,20,06,32,11.90
2016,04,20,06,33,11.80
2016,04,20,06,34,11.80
2016,04,20,06,35,11.70
2016,04,20,06,36,11.70
2016,04,20,06,37,11.60
2016,04,20,06,38,11.60
2016,04,20,06,39,11.60
2016,04,20,06,40,11.60
2016,04,20,06,41,11.50
2016,04,20,06,42,11.50
2016,04,20,06,43,11.50
2016,04,20,06,44,11.50
2016,04,20,06,45,11.50
2016,04,20,06,46,11.50
2016,04,20,06,47,11.50
2016,04,20,06,48,11.50
2016,04,20,06,49,11.50
2016,04,20,06,50,11.50
2016,04,20,06,51,11.60
2016,04,20,06,52,11.60
2016,04,20,06,53,11.60
2016,04,20,06,54,11.70
2016,04,20,06,55,11.70
2016,04,20,06,56,11.70
2016,04,20,06,57,11.70
2016,04,20,06,58,11.80
2016,04,20,06,59,11.80
2016,04,20,07,00,11.80
2016,04,20,07,01,11.80
2016,04,20,07,02,11.80
2016,04,20,07,03,11.80
2016,04,20,07,04,11.80
2016,04,20,07,05,11.80
2016,04,20,07,06,11.90
2016,04,20,07,07,11.90
2016,04,20,07,08,11.90
2016,04,20,07,09,11.90
2016,04,20,07,10,11.90
2016,04,20,07,11,12.00
2016,04,20,07,12,12.00
2016,04,20,07,13,12.00
2016,04,20,07,14,12.00
2016,04,20,07,15,12.00
2016,04,20,07,16,12.00
2016,04,20,07,17,12.10
2016,04,20,07,18,12.10
2016,04,20,07,19,12.10
2016,04,20,07,20,12.20
2016,04,20,07,21,12.20
2016,04,20,07,22,12.20
2016,04,20,07,23,12.30
2016,04,20,07,24,12.30
2016,04,20,07,25,12.30
2016,04,20,07,26,12.40
2016,04,20,07,27,12.40
2016,04,20,07,28,12.50
2016,04,20,07,29,12.50
2016,04,20,07,30,12.60
2016,04,20,07,31,12.60
2016,04,20,07,32,12.70
2016,04,20,07,33,12.70
2016,04,20,07,34,12.80
2016,04,20,07,35,12.80
2016,04,20,07,36,12.90
2016,04,20,07,37,12.90
2016,04,20,07,38,13.00
2016,04,20,07,39,13.00
2016,04,20,07,40,13.10
2016,04,20,07,41,13.20
2016,04,20,07,42,13.20
2016,04,20,07,43,13.30
2016,04,20,07,44,13.30
2016,04,20,07,45,13.40
2016,04,20,07,46,13.50
2016,04,20,07,47,13.60
2016,04,20,07,48,13.60
2016,04,20,07,49,13.70
2016,04,20,07,50,13.80
2016,04,20,07,51,13.90
2016,04,20,07,52,14.00
2016,04,20,07,53,14.10
2016,04,20,07,54,14.20
2016,04,20,07,55,14.20
2016,04,20,07,56,14.30
2016,04,20,07,57,14.40
2016,04,20,07,58,14.50
2016,04,20,07,59,14.60
2016,04,20,08,00,14.70
2016,04,20,08,01,14.80
2016,04,20,08,02,14.90
2016,04,20,08,03,15.00
2016,04,20,08,04,15.10
2016,04,20,08,05,15.20
2016,04,20,08,06,15.40
2016,04,20,08,07,15.50
2016,04,20,08,08,15.70
2016,04,20,08,09,15.80
2016,04,20,08,10,15.90
2016,04,20,08,11,16.10
2016,04,20,08,12,16.20
2016,04,20,08,13,16.30
2016,04,20,08,14,16.40
2016,04,20,08,15,16.50
2016,04,20,08,16,16.60
2016,04,20,08,17,16.70
2016,04,20,08,18,16.80
2016,04,20,08,19,16.80
2016,04,20,08,20,16.90
2016,04,20,08,21,17.00
2016,04,20,08,22,17.10
2016,04,20,08,23,17.10
2016,04,20,08,24,17.20
2016,04,20,08,25,17.20
2016,04,20,08,26,17.20
2016,04,20,08,27,17.30
2016,04,20,08,28,17.30
2016,04,20,08,29,17.30
2016,04,20,08,30,17.40
2016,04,20,08,31,17.40
2016,04,20,08,32,17.40
2016,04,20,08,33,17.40
2016,04,20,08,34,17.40
2016,04,20,08,35,17.40
2016,04,20,08,36,17.40
2016,04,20,08,37,17.40
2016,04,20,08,38,17.40
2016,04,20,08,39,17.40
2016,04,20,08,40,17.40
2016,04,20,08,41,17.40
2016,04,20,08,42,17.50
2016,04,20,08,43,17.50
2016,04,20,08,44,17.50
2016,04,20,08,45,17.60
2016,04,20,08,46,17.60
2016,04,20,08,47,17.60
2016,04,20,08,48,17.60
2016,04,20,08,49,17.60
2016,04,20,08,50,17.60
2016,04,20,08,51,17.60
2016,04,20,08,52,17.60
2016,04,20,08,53,17.60
2016,04,20,08,54,17.60
2016,04,20,08,55,17.60
2016,04,20,08,56,17.60
2016,04,20,08,57,17.60
2016,04,20,08,58,17.60
2016,04,20,08,59,17.70
2016,04,20,09,00,17.70
2016,04,20,09,01,17.70
2016,04,20,09,02,17.70
2016,04,20,09,03,17.70
2016,04,20,09,04,17.80
2016,04,20,09,05,17.80
2016,04,20,09,06,17.80
2016,04,20,09,07,17.80
2016,04,20,09,08,17.90
2016,04,20,09,09,17.90
2016,04,20,09,10,17.90
2016,04,20,09,11,17.90
2016,04,20,09,12,17.90
2016,04,20,09,13,17.90
2016,04,20,09,14,17.90
2016,04,20,09,15,17.90
2016,04,20,09,16,17.90
2016,04,20,09,17,17.90
2016,04,20,09,18,18.00
2016,04,20,09,19,18.00
2016,04,20,09,20,18.00
2016,04,20,09,21,18.10
2016,04,20,09,22,18.10
2016,04,20,09,23,18.10
2016,04,20,09,24,18.10
2016,04,20,09,25,18.10
2016,04,20,09,26,18.20
2016,04,20,09,27,18.20
2016,04,20,09,28,18.20
2016,04,20,09,29,18.30
2016,04,20,09,30,18.30
2016,04,20,09,31,18.30
2016,04,20,09,32,18.30
2016,04,20,09,33,18.30
2016,04,20,09,34,18.40
2016,04,20,09,35,18.40
2016,04,20,09,36,18.50
2016,04,20,09,37,18.50
2016,04,20,09,38,18.60
2016,04,20,09,39,18.60
2016,04,20,09,40,18.60
2016,04,20,09,41,18.70
2016,04,20,09,42,18.70
2016,04,20,09,43,18.70
2016,04,20,09,44,18.70
2016,04,20,09,45,18.80
2016,04,20,09,46,18.80
2016,04,20,09,47,18.80
2016,04,20,09,48,18.80
2016,04,20,09,49,18.80
2016,04,20,09,50,18.90
2016,04,20,09,51,18.90
2016,04,20,09,52,19.00
2016,04,20,09,53,19.10
2016,04,20,09,54,19.20
2016,04,20,09,55,19.20
2016,04,20,09,56,19.20
2016,04,20,09,57,19.20
2016,04,20,09,58,19.30
2016,04,20,09,59,19.30
2016,04,20,10,00,19.40
2016,04,20,10,01,19.40
2016,04,20,10,02,19.40
2016,04,20,10,03,19.40
2016,04,20,10,04,19.50
2016,04,20,10,05,19.50
2016,04,20,10,06,19.50
2016,04,20,10,07,19.60
2016,04,20,10,08,19.60
2016,04,20,10,09,19.60
2016,04,20,10,10,19.50
2016,04,20,10,11,19.50
2016,04,20,10,12,19.50
2016,04,20,10,13,19.50
2016,04,20,10,14,19.40
2016,04,20,10,15,19.40
2016,04,20,10,16,19.40
2016,04,20,10,17,19.40
2016,04,20,10,18,19.40
2016,04,20,10,19,19.40
2016,04,20,10,20,19.40
2016,04,20,10,21,19.50
2016,04,20,10,22,19.50
2016,04,20,10,23,19.50
2016,04,20,10,24,19.50
2016,04,20,10,25,19.60
2016,04,20,10,26,19.70
2016,04,20,10,27,19.70
2016,04,20,10,28,19.70
2016,04,20,10,29,19.70
2016,04,20,10,30,19.70
2016,04,20,10,31,19.60
2016,04,20,10,32,19.70
2016,04,20,10,33,19.70
2016,04,20,10,34,19.70
2016,04,20,10,35,19.70
2016,04,20,10,36,19.60
2016,04,20,10,37,19.60
2016,04,20,10,38,19.60
2016,04,20,10,39,19.60
2016,04,20,10,40,19.70
2016,04,20,10,41,19.70
2016,04,20,10,42,19.80
2016,04,20,10,43,19.90
2016,04,20,10,44,19.90
2016,04,20,10,45,19.90
2016,04,20,10,46,19.90
2016,04,20,10,47,20.00
2016,04,20,10,48,20.00
2016,04,20,10,49,20.10
2016,04,20,10,50,20.10
2016,04,20,10,51,20.10
2016,04,20,10,52,20.10
2016,04,20,10,53,20.20
2016,04,20,10,54,20.10
2016,04,20,10,55,20.10
2016,04,20,10,56,20.10
2016,04,20,10,57,20.10
2016,04,20,10,58,20.20
2016,04,20,10,59,20.20
2016,04,20,11,00,20.10
2016,04,20,11,01,20.10
2016,04,20,11,02,20.20
2016,04,20,11,03,20.20
2016,04,20,11,04,20.20
2016,04,20,11,05,20.20
2016,04,20,11,06,20.20
2016,04,20,11,07,20.30
2016,04,20,11,08,20.30
2016,04,20,11,09,20.30
2016,04,20,11,10,20.30
2016,04,20,11,11,20.40
2016,04,20,11,12,20.40
2016,04,20,11,13,20.40
2016,04,20,11,14,20.40
2016,04,20,11,15,20.50
2016,04,20,11,16,20.50
2016,04,20,11,17,20.50
2016,04,20,11,18,20.60
2016,04,20,11,19,20.60
2016,04,20,11,20,20.60
2016,04,20,11,21,20.60
2016,04,20,11,22,20.60
2016,04,20,11,23,20.70
2016,04,20,11,24,20.70
2016,04,20,11,25,20.70
2016,04,20,11,26,20.80
2016,04,20,11,27,20.80
2016,04,20,11,28,20.80
2016,04,20,11,29,20.70
2016,04,20,11,30,20.80
2016,04,20,11,31,20.80
2016,04,20,11,32,20.90
2016,04,20,11,33,20.90
2016,04,20,11,34,20.90
2016,04,20,11,35,20.90
2016,04,20,11,36,21.00
2016,04,20,11,37,21.00
2016,04,20,11,38,21.00
2016,04,20,11,39,21.00
2016,04,20,11,40,20.90
2016,04,20,11,41,20.90
2016,04,20,11,42,20.90
2016,04,20,11,43,20.80
2016,04,20,11,44,20.80
2016,04,20,11,45,20.80
2016,04,20,11,46,20.80
2016,04,20,11,47,20.80
2016,04,20,11,48,20.80
2016,04,20,11,49,20.80
2016,04,20,11,50,20.90
2016,04,20,11,51,21.10
2016,04,20,11,52,21.20
2016,04,20,11,53,21.30
2016,04,20,11,54,21.30
2016,04,20,11,55,21.40
2016,04,20,11,56,21.50
2016,04,20,11,57,21.50
2016,04,20,11,58,21.50
2016,04,20,11,59,21.50
2016,04,20,12,00,21.50
2016,04,20,12,01,21.50
2016,04,20,12,02,21.40
2016,04,20,12,03,21.40
2016,04,20,12,04,21.40
2016,04,20,12,05,21.50
2016,04,20,12,06,21.50
2016,04,20,12,07,21.50
2016,04,20,12,08,21.60
2016,04,20,12,09,21.60
2016,04,20,12,10,21.70
2016,04,20,12,11,21.60
2016,04,20,12,12,21.60
2016,04,20,12,13,21.70
2016,04,20,12,14,21.70
2016,04,20,12,15,21.70
2016,04,20,12,16,21.70
2016,04,20,12,17,21.80
2016,04,20,12,18,21.80
2016,04,20,12,19,21.90
2016,04,20,12,20,21.90
2016,04,20,12,21,22.00
2016,04,20,12,22,22.10
2016,04,20,12,23,22.20
2016,04,20,12,24,22.20
2016,04,20,12,25,22.30
2016,04,20,12,26,22.30
2016,04,20,12,27,22.30
2016,04,20,12,28,22.30
2016,04,20,12,29,22.30
2016,04,20,12,30,22.30
2016,04,20,12,31,22.30
2016,04,20,12,32,22.40
2016,04,20,12,33,22.40
2016,04,20,12,34,22.40
2016,04,20,12,35,22.40
2016,04,20,12,36,22.40
2016,04,20,12,37,22.40
2016,04,20,12,38,22.40
2016,04,20,12,39,22.40
2016,04,20,12,40,22.50
2016,04,20,12,41,22.50
2016,04,20,12,42,22.60
2016,04,20,12,43,22.70
2016,04,20,12,44,22.80
2016,04,20,12,45,22.90
2016,04,20,12,46,23.00
2016,04,20,12,47,23.10
2016,04,20,12,48,23.10
2016,04,20,12,49,23.20
2016,04,20,12,50,23.20
2016,04,20,12,51,23.30
2016,04,20,12,52,23.30
2016,04,20,12,53,23.30
2016,04,20,12,54,23.30
2016,04,20,12,55,23.30
2016,04,20,12,56,23.40
2016,04,20,12,57,23.50
2016,04,20,12,58,23.50
2016,04,20,12,59,23.50
2016,04,20,13,00,23.50
2016,04,20,13,01,23.40
2016,04,20,13,02,23.30
2016,04,20,13,03,23.20
2016,04,20,13,04,23.20
2016,04,20,13,05,23.10
2016,04,20,13,06,23.00
2016,04,20,13,07,22.90
2016,04,20,13,08,22.90
2016,04,20,13,09,22.80
2016,04,20,13,10,22.80
2016,04,20,13,11,22.80
2016,04,20,13,12,22.80
2016,04,20,13,13,22.90
2016,04,20,13,14,23.00
2016,04,20,13,15,23.00
2016,04,20,13,16,23.10
2016,04,20,13,17,23.20
2016,04,20,13,18,23.20
2016,04,20,13,19,23.30
2016,04,20,13,20,23.30
2016,04,20,13,21,23.40
2016,04,20,13,22,23.40
2016,04,20,13,23,23.40
2016,04,20,13,24,23.40
2016,04,20,13,25,23.40
2016,04,20,13,26,23.40
2016,04,20,13,27,23.50
2016,04,20,13,28,23.60
2016,04,20,13,29,23.60
2016,04,20,13,30,23.50
2016,04,20,13,31,23.50
2016,04,20,13,32,23.60
2016,04,20,13,33,23.60
2016,04,20,13,34,23.60
2016,04,20,13,35,23.60
2016,04,20,13,36,23.70
2016,04,20,13,37,23.70
2016,04,20,13,38,23.60
2016,04,20,13,39,23.60
2016,04,20,13,40,23.60
2016,04,20,13,41,23.50
2016,04,20,13,42,23.60
2016,04,20,13,43,23.60
2016,04,20,13,44,23.60
2016,04,20,13,45,23.60
2016,04,20,13,46,23.60
2016,04,20,13,47,23.60
2016,04,20,13,48,23.70
2016,04,20,13,49,23.80
2016,04,20,13,50,23.80
2016,04,20,13,51,23.80
2016,04,20,13,52,23.80
2016,04,20,13,53,23.80
2016,04,20,13,54,23.90
2016,04,20,13,55,23.90
2016,04,20,13,56,24.00
2016,04,20,13,57,24.10
2016,04,20,13,58,24.10
2016,04,20,13,59,24.10
2016,04,20,14,00,24.10
2016,04,20,14,01,24.00
2016,04,20,14,02,24.00
2016,04,20,14,03,24.00
2016,04,20,14,04,24.00
2016,04,20,14,05,24.00
2016,04,20,14,06,24.00
2016,04,20,14,07,24.10
2016,04,20,14,08,24.20
2016,04,20,14,09,24.20
2016,04,20,14,10,24.30
2016,04,20,14,11,24.30
2016,04,20,14,12,24.30
2016,04,20,14,13,24.30
2016,04,20,14,14,24.30
2016,04,20,14,15,24.30
2016,04,20,14,16,24.30
2016,04,20,14,17,24.30
2016,04,20,14,18,24.30
2016,04,20,14,19,24.30
2016,04,20,14,20,24.20
2016,04,20,14,21,24.20
2016,04,20,14,22,24.20
2016,04,20,14,23,24.20
2016,04,20,14,24,24.30
2016,04,20,14,25,24.40
2016,04,20,14,26,24.50
2016,04,20,14,27,24.60
2016,04,20,14,28,24.70
2016,04,20,14,29,24.70
2016,04,20,14,30,24.70
2016,04,20,14,31,24.70
2016,04,20,14,32,24.70
2016,04,20,14,33,24.70
2016,04,20,14,34,24.70
2016,04,20,14,35,24.70
2016,04,20,14,36,24.60
2016,04,20,14,37,24.60
2016,04,20,14,38,24.60
2016,04,20,14,39,24.60
2016,04,20,14,40,24.60
2016,04,20,14,41,24.70
2016,04,20,14,42,24.70
2016,04,20,14,43,24.80
2016,04,20,14,44,24.80
2016,04,20,14,45,24.80
2016,04,20,14,46,24.80
2016,04,20,14,47,24.80
2016,04,20,14,48,24.70
2016,04,20,14,49,24.60
2016,04,20,14,50,24.60
2016,04,20,14,51,24.70
2016,04,20,14,52,24.70
2016,04,20,14,53,24.80
2016,04,20,14,54,24.90
2016,04,20,14,55,25.00
2016,04,20,14,56,25.10
2016,04,20,14,57,25.10
2016,04,20,14,58,25.10
2016,04,20,14,59,25.10
2016,04,20,15,00,25.10
2016,04,20,15,01,25.10
2016,04,20,15,02,25.10
2016,04,20,15,03,25.10
2016,04,20,15,04,25.00
2016,04,20,15,05,25.00
2016,04,20,15,06,24.90
2016,04,20,15,07,24.90
2016,04,20,15,08,25.00
2016,04,20,15,09,25.00
2016,04,20,15,10,25.10
2016,04,20,15,11,25.10
2016,04,20,15,12,25.20
2016,04,20,15,13,25.20
2016,04,20,15,14,25.20
2016,04,20,15,15,25.20
2016,04,20,15,16,25.30
2016,04,20,15,17,25.30
2016,04,20,15,18,25.30
2016,04,20,15,19,25.30
2016,04,20,15,20,25.40
2016,04,20,15,21,25.40
2016,04,20,15,22,25.40
2016,04,20,15,23,25.40
2016,04,20,15,24,25.40
2016,04,20,15,25,25.40
2016,04,20,15,26,25.50
2016,04,20,15,27,25.50
2016,04,20,15,28,25.40
2016,04,20,15,29,25.40
2016,04,20,15,30,25.30
2016,04,20,15,31,25.30
2016,04,20,15,32,25.40
2016,04,20,15,33,25.40
2016,04,20,15,34,25.40
2016,04,20,15,35,25.50
2016,04,20,15,36,25.50
2016,04,20,15,37,25.50
2016,04,20,15,38,25.50
2016,04,20,15,39,25.40
2016,04,20,15,40,25.40
2016,04,20,15,41,25.40
2016,04,20,15,42,25.40
2016,04,20,15,43,25.40
2016,04,20,15,44,25.40
2016,04,20,15,45,25.30
2016,04,20,15,46,25.30
2016,04,20,15,47,25.30
2016,04,20,15,48,25.40
2016,04,20,15,49,25.40
2016,04,20,15,50,25.40
2016,04,20,15,51,25.40
2016,04,20,15,52,25.40
2016,04,20,15,53,25.40
2016,04,20,15,54,25.40
2016,04,20,15,55,25.40
2016,04,20,15,56,25.30
2016,04,20,15,57,25.30
2016,04,20,15,58,25.30
2016,04,20,15,59,25.30
2016,04,20,16,00,25.30
2016,04,20,16,01,25.30
2016,04,20,16,02,25.30
2016,04,20,16,03,25.30
2016,04,20,16,04,25.30
2016,04,20,16,05,25.30
2016,04,20,16,06,25.30
2016,04,20,16,07,25.30
2016,04,20,16,08,25.30
2016,04,20,16,09,25.30
2016,04,20,16,10,25.30
2016,04,20,16,11,25.40
2016,04,20,16,12,25.40
2016,04,20,16,13,25.50
2016,04,20,16,14,25.60
2016,04,20,16,15,25.60
2016,04,20,16,16,25.60
2016,04,20,16,17,25.60
2016,04,20,16,18,25.70
2016,04,20,16,19,25.80
2016,04,20,16,20,25.80
2016,04,20,16,21,25.90
2016,04,20,16,22,26.00
2016,04,20,16,23,26.00
2016,04,20,16,24,26.10
2016,04,20,16,25,26.10
2016,04,20,16,26,26.20
2016,04,20,16,27,26.20
2016,04,20,16,28,26.20
2016,04,20,16,29,26.20
2016,04,20,16,30,26.10
2016,04,20,16,31,26.10
2016,04,20,16,32,26.00
2016,04,20,16,33,26.00
2016,04,20,16,34,26.00
2016,04,20,16,35,25.90
2016,04,20,16,36,25.90
2016,04,20,16,37,25.90
2016,04,20,16,38,26.00
2016,04,20,16,39,26.00
2016,04,20,16,40,26.10
2016,04,20,16,41,26.20
2016,04,20,16,42,26.30
2016,04,20,16,43,26.20
2016,04,20,16,44,25.70
2016,04,20,16,45,25.20
2016,04,20,16,46,24.60
2016,04,20,16,47,24.00
2016,04,20,16,48,23.60
2016,04,20,16,49,23.20
2016,04,20,16,50,22.80
2016,04,20,16,51,22.40
2016,04,20,16,52,22.00
2016,04,20,16,53,21.70
2016,04,20,16,54,21.40
2016,04,20,16,55,21.20
2016,04,20,16,56,21.00
2016,04,20,16,57,20.90
2016,04,20,16,58,20.70
2016,04,20,16,59,20.60
2016,04,20,17,00,20.40
2016,04,20,17,01,20.40
2016,04,20,17,02,20.30
2016,04,20,17,03,20.30
2016,04,20,17,04,20.30
2016,04,20,17,05,20.30
2016,04,20,17,06,20.30
2016,04,20,17,07,20.20
2016,04,20,17,08,20.20
2016,04,20,17,09,20.20
2016,04,20,17,10,20.20
2016,04,20,17,11,20.20
2016,04,20,17,12,20.20
2016,04,20,17,13,20.20
2016,04,20,17,14,20.30
2016,04,20,17,15,20.30
2016,04,20,17,16,20.40
2016,04,20,17,17,20.40
2016,04,20,17,18,20.50
2016,04,20,17,19,20.50